When you browse on this site, cookies collect data to enhance your experience and personalize the content and advertising you see.
Visit our Privacy Policy to learn more. By continuing to use the site, you agree to this use of cookies and data.
  • In United Kingdom
  • List of Countries
  • For 7 days
  • Water Temperature
  • Satellite Maps
  • Weather Map
  • Weather Widgets
  • user-avatar
    Login

    Hourly Weather Dolina

    Today, 21 November, Wednesday

    Time Temperature Precipitation Wind Pressure Humidity
    00:00 -5°C° 0 mm 6 mps 723 mmHg 100%
    01:00 -5°C° 0 mm 6 mps 722 mmHg 100%
    02:00 -3°C° 0 mm 2 mps 723 mmHg 99%
    03:00 -5°C° 0 mm 3 mps 723 mmHg 100%
    04:00 -5°C° 0 mm 3 mps 723 mmHg 100%
    05:00 -5°C° 0.1 mm 4 mps 723 mmHg 100%
    06:00 -6°C° 0 mm 5 mps 722 mmHg 100%
    07:00 -6°C° 0 mm 5 mps 722 mmHg 100%
    08:00 -6°C° 0 mm 5 mps 723 mmHg 100%
    09:00 -6°C° 0 mm 5 mps 723 mmHg 100%
    10:00 -6°C° 0 mm 5 mps 723 mmHg 100%
    11:00 -5°C° 0 mm 5 mps 723 mmHg 100%
    12:00 -5°C° 0 mm 5 mps 724 mmHg 100%
    13:00 -4°C° 0 mm 5 mps 723 mmHg 100%
    14:00 -1°C° 0 mm 3 mps 724 mmHg 92%
    15:00 -4°C° 0 mm 5 mps 724 mmHg 100%
    16:00 -4°C° 0.2 mm 5 mps 723 mmHg 100%
    17:00 -5°C° 0.1 mm 5 mps 724 mmHg 100%
    18:00 -5°C° 0 mm 5 mps 724 mmHg 100%
    19:00 -6°C° 0 mm 5 mps 724 mmHg 100%
    20:00 -6°C° 0 mm 5 mps 724 mmHg 100%
    21:00 -6°C° 0 mm 5 mps 724 mmHg 100%
    22:00 -5°C° 0 mm 4 mps 725 mmHg 100%
    23:00 -5°C° 0 mm 4 mps 725 mmHg 100%

    Tomorrow, 22 November, Thursday

    Time Temperature Precipitation Wind Pressure Humidity
    00:00 -5°C° 0 mm 4 mps 725 mmHg 100%
    01:00 -7°C° 0 mm 4 mps 725 mmHg 100%
    02:00 -8°C° 0 mm 4 mps 725 mmHg 100%
    03:00 -8°C° 0 mm 4 mps 725 mmHg 100%
    04:00 -7°C° 0 mm 3 mps 725 mmHg 100%
    05:00 -6°C° 0 mm 3 mps 725 mmHg 100%
    06:00 -7°C° 0 mm 3 mps 725 mmHg 100%
    07:00 -6°C° 0 mm 2 mps 725 mmHg 100%
    08:00 -6°C° 0 mm 2 mps 725 mmHg 100%
    09:00 -6°C° 0 mm 1 mps 725 mmHg 100%
    10:00 -4°C° 0 mm 1 mps 726 mmHg 100%
    11:00 -4°C° 0 mm 1 mps 726 mmHg 100%
    12:00 -3°C° 0 mm 1 mps 726 mmHg 100%
    13:00 -4°C° 0 mm 2 mps 726 mmHg 100%
    14:00 -4°C° 0 mm 2 mps 726 mmHg 100%
    15:00 -4°C° 0 mm 2 mps 726 mmHg 100%
    16:00 -3°C° 0 mm 1 mps 726 mmHg 100%
    17:00 -4°C° 0 mm 1 mps 726 mmHg 100%
    18:00 -4°C° 0 mm 1 mps 726 mmHg 100%
    19:00 -4°C° 0 mm 1 mps 726 mmHg 100%
    20:00 -3°C° 0 mm 1 mps 727 mmHg 100%
    21:00 -3°C° 0 mm 1 mps 727 mmHg 100%
    22:00 -3°C° 0 mm 0 mps 727 mmHg 100%
    23:00 -2°C° 0 mm 0 mps 727 mmHg 100%

    Day after tomorrow, 23 November, Friday

    Time Temperature Precipitation Wind Pressure Humidity
    00:00 -2°C° 0 mm 0 mps 727 mmHg 99%
    01:00 -1°C° 0 mm 0 mps 728 mmHg 97%
    02:00 -1°C° 0 mm 0 mps 728 mmHg 98%
    03:00 -1°C° 0 mm 0 mps 728 mmHg 97%
    04:00 -1°C° 0 mm 0 mps 728 mmHg 96%
    05:00 0°C° 0 mm 0 mps 728 mmHg 95%
    06:00 0°C° 0 mm 0 mps 728 mmHg 97%
    07:00 0°C° 0 mm 0 mps 729 mmHg 99%
    08:00 0°C° 0 mm 0 mps 729 mmHg 100%
    09:00 0°C° 0 mm 0 mps 729 mmHg 100%
    10:00 +1°C° 0 mm 1 mps 729 mmHg 100%
    11:00 +1°C° 0 mm 1 mps 729 mmHg 100%
    12:00 +2°C° 0 mm 1 mps 730 mmHg 100%
    13:00 +2°C° 0 mm 1 mps 729 mmHg 100%
    14:00 +2°C° 0 mm 1 mps 729 mmHg 100%
    15:00 +1°C° 0 mm 2 mps 729 mmHg 100%
    16:00 -1°C° 0 mm 2 mps 729 mmHg 100%
    17:00 -2°C° 0 mm 2 mps 729 mmHg 100%
    18:00 -2°C° 0 mm 2 mps 729 mmHg 100%
    19:00 -3°C° 0 mm 2 mps 729 mmHg 100%
    20:00 -2°C° 0 mm 2 mps 729 mmHg 100%
    21:00 -2°C° 0 mm 2 mps 728 mmHg 100%
    22:00 -2°C° 0 mm 2 mps 728 mmHg 100%
    23:00 0°C° 0 mm 1 mps 728 mmHg 100%

    24 November, Saturday

    Time Temperature Precipitation Wind Pressure Humidity
    00:00 -2°C° 0 mm 2 mps 728 mmHg 100%
    01:00 -2°C° 0 mm 2 mps 727 mmHg 100%
    02:00 0°C° 0 mm 1 mps 727 mmHg 100%
    03:00 -1°C° 0 mm 1 mps 727 mmHg 100%
    04:00 -1°C° 0 mm 1 mps 726 mmHg 100%
    05:00 -3°C° 0 mm 2 mps 725 mmHg 100%
    06:00 -3°C° 0 mm 2 mps 725 mmHg 100%
    07:00 -3°C° 0 mm 2 mps 725 mmHg 100%
    08:00 -3°C° 0 mm 2 mps 724 mmHg 100%
    09:00 -3°C° 0 mm 2 mps 724 mmHg 100%
    10:00 -2°C° 0 mm 2 mps 724 mmHg 98%
    11:00 -1°C° 0 mm 2 mps 723 mmHg 98%
    12:00 +1°C° 0 mm 2 mps 723 mmHg 95%
    13:00 +2°C° 0 mm 2 mps 723 mmHg 94%
    14:00 +2°C° 0 mm 2 mps 723 mmHg 95%
    15:00 +2°C° 0 mm 2 mps 722 mmHg 94%
    16:00 +2°C° 0 mm 2 mps 722 mmHg 93%
    17:00 +2°C° 0 mm 2 mps 722 mmHg 92%
    18:00 +4°C° 0 mm 1 mps 722 mmHg 88%
    19:00 +3°C° 0 mm 2 mps 722 mmHg 89%
    20:00 +2°C° 0 mm 3 mps 721 mmHg 88%
    21:00 +3°C° 0 mm 3 mps 721 mmHg 85%
    22:00 +3°C° 0 mm 3 mps 720 mmHg 85%
    23:00 +4°C° 0 mm 4 mps 720 mmHg 86%

    25 November, Sunday

    Time Temperature Precipitation Wind Pressure Humidity
    00:00 +3°C° 0 mm 5 mps 720 mmHg 88%
    01:00 +5°C° 0.1 mm 3 mps 720 mmHg 86%
    02:00 +5°C° 0 mm 2 mps 720 mmHg 89%
    03:00 +3°C° 0 mm 3 mps 719 mmHg 92%
    04:00 +3°C° 0 mm 3 mps 718 mmHg 88%
    05:00 +4°C° 0 mm 2 mps 718 mmHg 89%
    06:00 +4°C° 0 mm 1 mps 718 mmHg 92%
    07:00 +5°C° 0 mm 1 mps 718 mmHg 92%
    08:00 +5°C° 0 mm 1 mps 717 mmHg 91%
    09:00 +5°C° 0 mm 1 mps 717 mmHg 91%
    10:00 +4°C° 0 mm 0 mps 717 mmHg 92%
    11:00 +4°C° 0 mm 0 mps 717 mmHg 93%
    12:00 +5°C° 0 mm 1 mps 718 mmHg 94%
    13:00 +5°C° 0 mm 1 mps 717 mmHg 96%
    14:00 +4°C° 0 mm 1 mps 717 mmHg 99%

    26 November, Monday

    Time Temperature Precipitation Wind Pressure Humidity
    Show more